Weather History for Columbus, OH

Change the Weather History Date:

Thursday, January 24, 2013

  Actual Average Record
Temperature  
Mean Temperature 18 °F 30 °F  
Max Temperature 22 °F 37 °F 66 °F (1950)
Min Temperature 13 °F 22 °F -15 °F (1963)
Degree Days  
Heating Degree Days 47 35  
Month to date heating degree days 805 856  
Since 1 July heating degree days 2706 2847  
Cooling Degree Days 0 0  
Month to date cooling degree days 0 0  
Year to date cooling degree days 0 0  
Moisture  
Dew Point 10 °F    
Average Humidity 68    
Maximum Humidity 84    
Minimum Humidity 52    
Precipitation  
Precipitation 0.01 in 0.08 in 1.65 in (1937)
Month to date precipitation 1.03 2.15  
Year to date precipitation 1.03 2.15  
Snow  
Snow 0.20 in 0.30 in 5.70 in (1948)
Month to date snowfall 1.4 7.2  
Since 1 July snowfall 17.1 13.3  
Snow Depth 1.00 in    
Sea Level Pressure  
Sea Level Pressure 30.38 in    
Wind  
Wind Speed 8 mph (NW)    
Max Wind Speed 24 mph    
Max Gust Speed 30 mph    
Visibility 8 miles    
Events Snow    
T = Trace of Precipitation, MM = Missing Value Source: NWS Daily Summary

Daily Weather History Graph

Daily Weather History Graph

Search for Another Location

Airport:

Trip Planner

Search our weather history database for the weather conditions in past years. The results will help you decide how hot, cold, wet, or windy it might be!

Date:

Astronomy

Jan. 24, 2013 Rise Set
Actual Time 7:46 AM EST 5:41 PM EST
Civil Twilight 7:17 AM EST 6:10 PM EST
Nautical Twilight 6:44 AM EST 6:43 PM EST
Astronomical Twilight 6:12 AM EST 7:15 PM EST
Moon 3:42 PM EST (1/24) 5:43 AM EST (1/24)
Length of Visible Light 10h 53m
Length of Day
9h 55m
Waxing Gibbous, 94% of the Moon is Illuminated
Jan 24
Waxing Gibbous
Jan 26
Full
Feb 3
Last Quarter
Feb 10
New
Feb 17
First Quarter

Hourly Weather History & Observations

Time (EST) Temp. Windchill Dew Point Humidity Pressure Visibility Wind Dir Wind Speed Gust Speed Precip Events Conditions
12:00 AM 19.4 °F 10.4 °F 15.8 °F 86% 30.07 in 4.0 mi West 6.9 mph - 0.00 in Snow Light Snow
12:11 AM 19.4 °F 10.4 °F 15.8 °F 86% 30.07 in 3.0 mi West 6.9 mph - 0.00 in Snow Light Snow
12:51 AM 17.1 °F 8.7 °F 14.0 °F 88% 30.11 in 7.0 mi West 5.8 mph - 0.01 in   Overcast
1:51 AM 18.0 °F 7.7 °F 14.0 °F 84% 30.13 in 5.0 mi West 8.1 mph - 0.00 in   Overcast
2:10 AM 17.6 °F 5.7 °F 14.0 °F 86% 30.10 in 2.5 mi West 10.4 mph - 0.00 in Snow Light Snow
2:27 AM 17.6 °F 5.7 °F 14.0 °F 86% 30.11 in 3.0 mi WNW 10.4 mph - 0.00 in Snow Light Snow
2:40 AM 19.4 °F 8.6 °F 14.0 °F 80% 30.12 in 2.5 mi WNW 9.2 mph - 0.00 in Snow Light Snow
2:51 AM 19.0 °F 8.2 °F 14.0 °F 81% 30.17 in 2.0 mi WNW 9.2 mph - 0.00 in Snow Light Snow
3:13 AM 19.4 °F 6.0 °F 14.0 °F 80% 30.14 in 3.0 mi NW 13.8 mph - 0.00 in Snow Light Snow
3:51 AM 19.0 °F 4.0 °F 12.0 °F 74% 30.21 in 4.0 mi NW 17.3 mph 24.2 mph 0.00 in Snow Light Snow
4:51 AM 18.0 °F 3.1 °F 10.0 °F 71% 30.26 in 9.0 mi NW 16.1 mph 27.6 mph 0.00 in   Overcast
5:51 AM 16.0 °F 0.1 °F 9.0 °F 74% 30.32 in 6.0 mi NW 17.3 mph 25.3 mph 0.00 in Snow Light Snow
6:51 AM 16.0 °F 1.1 °F 9.0 °F 74% 30.38 in 7.0 mi NNW 15.0 mph - 0.00 in Snow Light Snow
7:51 AM 15.1 °F 1.1 °F 8.1 °F 74% 30.43 in 10.0 mi NW 12.7 mph - 0.00 in   Mostly Cloudy
8:11 AM 15.8 °F 3.4 °F 6.8 °F 68% 30.40 in 10.0 mi NNW 10.4 mph - N/A   Scattered Clouds
8:51 AM 14.0 °F -0.2 °F 7.0 °F 74% 30.48 in 10.0 mi NNW 12.7 mph - N/A   Mostly Cloudy
9:51 AM 15.8 °F 3.4 °F 6.8 °F 68% 30.47 in 7.0 mi North 10.4 mph - N/A   Mostly Cloudy
10:51 AM 16.0 °F 4.4 °F 7.0 °F 68% 30.57 in 10.0 mi NNW 9.2 mph - N/A   Mostly Cloudy
11:51 AM 17.1 °F 6.6 °F 7.0 °F 65% 30.59 in 10.0 mi North 8.1 mph - N/A   Mostly Cloudy
12:51 PM 19.0 °F 9.0 °F 9.0 °F 65% 30.58 in 10.0 mi NNW 8.1 mph - N/A   Mostly Cloudy
1:51 PM 19.9 °F 13.4 °F 8.1 °F 60% 30.56 in 10.0 mi North 4.6 mph - N/A   Mostly Cloudy
2:51 PM 21.0 °F - 8.1 °F 57% 30.56 in 10.0 mi Calm Calm - N/A   Mostly Cloudy
3:51 PM 21.0 °F 13.4 °F 7.0 °F 55% 30.56 in 10.0 mi ENE 5.8 mph - N/A   Mostly Cloudy
4:51 PM 19.9 °F 13.4 °F 7.0 °F 57% 30.55 in 10.0 mi ENE 4.6 mph - N/A   Overcast
5:51 PM 19.9 °F 14.9 °F 7.0 °F 57% 30.57 in 10.0 mi North 3.5 mph - N/A   Overcast
6:51 PM 19.9 °F - 6.1 °F 55% 30.58 in 10.0 mi Calm Calm - N/A   Overcast
7:51 PM 19.0 °F - 7.0 °F 59% 30.58 in 10.0 mi Calm Calm - N/A   Overcast
8:51 PM 18.0 °F - 8.1 °F 65% 30.56 in 10.0 mi Calm Calm - N/A   Overcast
9:51 PM 18.0 °F 12.7 °F 9.0 °F 68% 30.54 in 10.0 mi ENE 3.5 mph - N/A   Overcast
10:51 PM 19.0 °F - 8.1 °F 62% 30.53 in 10.0 mi Calm Calm - N/A   Overcast
11:51 PM 19.0 °F 9.0 °F 6.1 °F 57% 30.51 in 10.0 mi East 8.1 mph - N/A   Overcast